SBI7346 UUDD-UUDL

Flight info

Callsign SBI7346
Flight time 0h 56m
Altitude 21000
Route RILPO4R RILPO T753 RANTO RANTO2P
Aircraft A20N/M-SDE2E3FGHIRWXY/LB1

Departure

Time 2026-04-20 17:09
Airport Domodedovo International Airport (UUDD)

Arrival

Time 2026-04-20 18:06
Airport Golden Ring Yaroslavl International Airport (UUDL)
Time Latitude Longitude Altitude Speed Heading
2026-04-20 16:30 55.41263 37.90079 576 ft 0 kts 235°
2026-04-20 16:52 55.41268 37.90091 556 ft 4 kts 234°
2026-04-20 16:52 55.41285 37.90127 584 ft 4 kts 222°
2026-04-20 16:52 55.41306 37.90152 580 ft 4 kts 193°
2026-04-20 16:52 55.41325 37.90151 582 ft 3 kts 146°
2026-04-20 16:53 55.41310 37.90169 583 ft 4 kts 145°
2026-04-20 16:53 55.41288 37.90196 576 ft 4 kts 144°
2026-04-20 16:53 55.41276 37.90211 575 ft 2 kts 144°
2026-04-20 16:57 55.41275 37.90213 575 ft 1 kts 144°
2026-04-20 16:57 55.41255 37.90237 574 ft 6 kts 145°
2026-04-20 16:58 55.41213 37.90288 574 ft 9 kts 146°
2026-04-20 16:58 55.41193 37.90308 573 ft 0 kts 156°
2026-04-20 16:58 55.41192 37.90308 573 ft 0 kts 161°
2026-04-20 16:58 55.41191 37.90307 574 ft 0 kts 171°
2026-04-20 16:59 55.41186 37.90307 574 ft 2 kts 178°
2026-04-20 16:59 55.41156 37.90283 573 ft 7 kts 228°
2026-04-20 16:59 55.41118 37.90218 573 ft 8 kts 192°
2026-04-20 16:59 55.41064 37.90237 571 ft 8 kts 187°
2026-04-20 17:00 55.40996 37.90105 572 ft 7 kts 236°
2026-04-20 17:00 55.40971 37.90039 573 ft 6 kts 235°
2026-04-20 17:00 55.40948 37.89982 573 ft 6 kts 235°
2026-04-20 17:01 55.40921 37.89913 570 ft 7 kts 236°
2026-04-20 17:01 55.40896 37.89848 576 ft 6 kts 236°
2026-04-20 17:01 55.40873 37.89789 576 ft 7 kts 236°
2026-04-20 17:01 55.40834 37.89687 579 ft 13 kts 236°
2026-04-20 17:02 55.40794 37.89614 574 ft 6 kts 205°
2026-04-20 17:02 55.40755 37.89573 572 ft 7 kts 228°
2026-04-20 17:02 55.40722 37.89494 574 ft 9 kts 235°
2026-04-20 17:02 55.40687 37.89405 577 ft 9 kts 236°
2026-04-20 17:03 55.40655 37.89361 574 ft 9 kts 196°
2026-04-20 17:03 55.40593 37.89401 570 ft 11 kts 145°
2026-04-20 17:03 55.40502 37.89511 574 ft 13 kts 146°
2026-04-20 17:03 55.40419 37.89610 568 ft 15 kts 146°
2026-04-20 17:04 55.40325 37.89723 568 ft 17 kts 146°
2026-04-20 17:04 55.40220 37.89849 561 ft 19 kts 145°
2026-04-20 17:04 55.40144 37.89941 566 ft 20 kts 145°
2026-04-20 17:04 55.40022 37.90087 560 ft 22 kts 145°
2026-04-20 17:05 55.39891 37.90245 557 ft 24 kts 145°
2026-04-20 17:05 55.39752 37.90412 550 ft 13 kts 145°
2026-04-20 17:05 55.39691 37.90486 549 ft 12 kts 145°
2026-04-20 17:05 55.39640 37.90538 548 ft 8 kts 164°
2026-04-20 17:06 55.39638 37.90539 548 ft 0 kts 166°
2026-04-20 17:06 55.39637 37.90539 548 ft 0 kts 166°
2026-04-20 17:07 55.39628 37.90541 548 ft 2 kts 177°
2026-04-20 17:07 55.39609 37.90533 547 ft 3 kts 202°
2026-04-20 17:07 55.39596 37.90515 547 ft 2 kts 227°
2026-04-20 17:07 55.39585 37.90493 547 ft 3 kts 232°
2026-04-20 17:08 55.39572 37.90461 551 ft 5 kts 235°
2026-04-20 17:08 55.39538 37.90365 546 ft 10 kts 246°
2026-04-20 17:08 55.39568 37.90270 546 ft 9 kts 323°
2026-04-20 17:08 55.39572 37.90265 546 ft 0 kts 323°
2026-04-20 17:09 55.39679 37.90135 548 ft 52 kts 326°
2026-04-20 17:09 55.40179 37.89534 566 ft 124 kts 325°
2026-04-20 17:09 55.41041 37.88496 802 ft 163 kts 327°
2026-04-20 17:09 55.41957 37.87410 1723 ft 154 kts 328°
2026-04-20 17:10 55.42751 37.86149 2712 ft 155 kts 318°
2026-04-20 17:10 55.43476 37.84716 3646 ft 159 kts 315°
2026-04-20 17:10 55.44269 37.83097 4073 ft 191 kts 314°
2026-04-20 17:10 55.45179 37.81226 4035 ft 208 kts 314°
2026-04-20 17:11 55.46134 37.79256 3921 ft 211 kts 315°
2026-04-20 17:11 55.47273 37.77703 3999 ft 209 kts 336°
2026-04-20 17:11 55.48672 37.76680 4010 ft 225 kts 342°
2026-04-20 17:11 55.50162 37.75755 3994 ft 228 kts 343°
2026-04-20 17:12 55.51684 37.74945 4000 ft 228 kts 352°
2026-04-20 17:12 55.53267 37.75032 4284 ft 234 kts 17°
2026-04-20 17:12 55.54798 37.76224 5065 ft 245 kts 28°
2026-04-20 17:12 55.56272 37.77714 6097 ft 249 kts 31°
2026-04-20 17:13 55.57777 37.79289 7086 ft 254 kts 31°
2026-04-20 17:13 55.59310 37.80893 8075 ft 259 kts 31°
2026-04-20 17:13 55.60875 37.82521 9088 ft 263 kts 31°
2026-04-20 17:13 55.62472 37.84177 10080 ft 268 kts 31°
2026-04-20 17:14 55.64114 37.85803 11021 ft 273 kts 26°
2026-04-20 17:14 55.65960 37.86713 12030 ft 279 kts
2026-04-20 17:14 55.67918 37.86856 13077 ft 284 kts
2026-04-20 17:14 55.69906 37.86817 14059 ft 288 kts
2026-04-20 17:15 55.71932 37.86755 14910 ft 294 kts
2026-04-20 17:15 55.73973 37.86701 15732 ft 299 kts
2026-04-20 17:15 55.76075 37.86654 16566 ft 304 kts
2026-04-20 17:15 55.78216 37.86613 17405 ft 310 kts
2026-04-20 17:16 55.80386 37.86575 18237 ft 315 kts
2026-04-20 17:16 55.82595 37.86539 18962 ft 320 kts
2026-04-20 17:16 55.84835 37.86517 19706 ft 323 kts
2026-04-20 17:16 55.87072 37.87065 20415 ft 326 kts 18°
2026-04-20 17:17 55.89244 37.88419 20845 ft 339 kts 23°
2026-04-20 17:17 55.91500 37.90081 20942 ft 361 kts 25°
2026-04-20 17:17 55.93888 37.91886 20941 ft 382 kts 25°
2026-04-20 17:17 55.96357 37.93739 20934 ft 388 kts 24°
2026-04-20 17:18 55.98934 37.95190 20932 ft 391 kts 12°
2026-04-20 17:18 56.01627 37.95384 20931 ft 395 kts 355°
2026-04-20 17:18 56.04330 37.94157 20933 ft 397 kts 342°
2026-04-20 17:18 56.06887 37.92411 20933 ft 398 kts 340°
2026-04-20 17:19 56.09462 37.90547 20935 ft 399 kts 340°
2026-04-20 17:19 56.12051 37.88703 20936 ft 398 kts 342°
2026-04-20 17:19 56.14728 37.87547 20934 ft 395 kts 356°
2026-04-20 17:19 56.17466 37.87502 20934 ft 392 kts
2026-04-20 17:20 56.20189 37.87839 20930 ft 392 kts
2026-04-20 17:20 56.22908 37.88242 20931 ft 392 kts
2026-04-20 17:20 56.25600 37.88644 20932 ft 392 kts
2026-04-20 17:20 56.28318 37.89044 20936 ft 392 kts
2026-04-20 17:21 56.31046 37.89440 20936 ft 392 kts
2026-04-20 17:21 56.33775 37.89833 20934 ft 392 kts
2026-04-20 17:21 56.36496 37.90223 20937 ft 392 kts
2026-04-20 17:21 56.39215 37.90610 20937 ft 392 kts
2026-04-20 17:22 56.41899 37.90978 20939 ft 392 kts
2026-04-20 17:22 56.44623 37.91348 20939 ft 392 kts
2026-04-20 17:22 56.47341 37.91716 20940 ft 392 kts
2026-04-20 17:22 56.50065 37.92086 20941 ft 392 kts
2026-04-20 17:23 56.52786 37.92456 20940 ft 392 kts
2026-04-20 17:23 56.55504 37.92826 20945 ft 392 kts
2026-04-20 17:23 56.58225 37.93197 20942 ft 392 kts
2026-04-20 17:23 56.60940 37.93568 20947 ft 392 kts
2026-04-20 17:24 56.63657 37.93940 20946 ft 391 kts
2026-04-20 17:24 56.66368 37.94429 20943 ft 390 kts 12°
2026-04-20 17:24 56.68955 37.95812 20947 ft 386 kts 26°
2026-04-20 17:24 56.71184 37.98369 20950 ft 383 kts 41°
2026-04-20 17:25 56.73158 38.01642 20949 ft 382 kts 45°
2026-04-20 17:25 56.75057 38.05050 20951 ft 383 kts 46°
2026-04-20 17:25 56.76948 38.08477 20948 ft 383 kts 46°
2026-04-20 17:25 56.78840 38.11902 20947 ft 383 kts 46°
2026-04-20 17:26 56.80735 38.15324 20945 ft 383 kts 46°
2026-04-20 17:26 56.82631 38.18744 20945 ft 383 kts 46°
2026-04-20 17:26 56.84508 38.22131 20944 ft 383 kts 46°
2026-04-20 17:26 56.86407 38.25558 20948 ft 383 kts 45°
2026-04-20 17:27 56.88380 38.28856 20946 ft 384 kts 42°
2026-04-20 17:27 56.90411 38.32052 20945 ft 384 kts 42°
2026-04-20 17:27 56.92444 38.35221 20941 ft 384 kts 42°
2026-04-20 17:27 56.94456 38.38361 20943 ft 384 kts 42°
2026-04-20 17:28 56.96491 38.41543 20941 ft 384 kts 42°
2026-04-20 17:28 56.98526 38.44735 20946 ft 384 kts 42°
2026-04-20 17:28 57.00556 38.47926 20945 ft 384 kts 42°
2026-04-20 17:28 57.02591 38.51130 20947 ft 384 kts 42°
2026-04-20 17:29 57.04599 38.54296 20945 ft 384 kts 42°
2026-04-20 17:29 57.06631 38.57507 20944 ft 384 kts 42°
2026-04-20 17:29 57.08669 38.60731 20942 ft 384 kts 42°
2026-04-20 17:29 57.10699 38.63947 20948 ft 385 kts 42°
2026-04-20 17:30 57.12699 38.67121 20945 ft 385 kts 42°
2026-04-20 17:30 57.14752 38.70384 20946 ft 385 kts 42°
2026-04-20 17:30 57.16747 38.73560 20942 ft 382 kts 42°
2026-04-20 17:30 57.18748 38.76749 20946 ft 379 kts 42°
2026-04-20 17:31 57.20744 38.79934 20947 ft 378 kts 42°
2026-04-20 17:31 57.22728 38.83108 20945 ft 378 kts 42°
2026-04-20 17:31 57.24713 38.86286 20946 ft 377 kts 42°
2026-04-20 17:31 57.26701 38.89474 20945 ft 378 kts 42°
2026-04-20 17:32 57.28692 38.92672 20946 ft 378 kts 42°
2026-04-20 17:32 57.30651 38.95823 20946 ft 378 kts 42°
2026-04-20 17:32 57.32629 38.99008 20716 ft 373 kts 42°
2026-04-20 17:32 57.34564 39.02128 20324 ft 365 kts 42°
2026-04-20 17:33 57.36463 39.05194 19796 ft 360 kts 43°
2026-04-20 17:33 57.38350 39.08248 19188 ft 359 kts 43°
2026-04-20 17:33 57.40223 39.11283 18633 ft 357 kts 43°
2026-04-20 17:33 57.42090 39.14312 18034 ft 355 kts 43°
2026-04-20 17:34 57.43941 39.17319 17442 ft 351 kts 43°
2026-04-20 17:34 57.45757 39.20323 16801 ft 349 kts 45°
2026-04-20 17:34 57.47291 39.23758 16327 ft 342 kts 59°
2026-04-20 17:34 57.48238 39.27694 15829 ft 337 kts 75°
2026-04-20 17:35 57.48565 39.32002 15088 ft 340 kts 87°
2026-04-20 17:35 57.48557 39.36429 14260 ft 343 kts 90°
2026-04-20 17:35 57.48480 39.40847 13654 ft 340 kts 90°
2026-04-20 17:35 57.48403 39.45208 13074 ft 334 kts 90°
2026-04-20 17:36 57.48332 39.49489 12539 ft 329 kts 90°
2026-04-20 17:36 57.48267 39.53717 12018 ft 325 kts 90°
2026-04-20 17:36 57.48206 39.57835 11522 ft 321 kts 90°
2026-04-20 17:36 57.48146 39.61958 11099 ft 314 kts 90°
2026-04-20 17:37 57.48087 39.65880 10948 ft 291 kts 90°
2026-04-20 17:37 57.48031 39.69532 10808 ft 275 kts 89°
2026-04-20 17:37 57.47979 39.73012 10674 ft 264 kts 89°
2026-04-20 17:37 57.47928 39.76384 10483 ft 257 kts 89°
2026-04-20 17:38 57.47878 39.79695 10178 ft 256 kts 89°
2026-04-20 17:38 57.47827 39.83008 9843 ft 256 kts 89°
2026-04-20 17:38 57.47775 39.86298 9481 ft 254 kts 89°
2026-04-20 17:38 57.47723 39.89523 9155 ft 252 kts 89°
2026-04-20 17:39 57.47670 39.92756 8829 ft 249 kts 89°
2026-04-20 17:39 57.47616 39.95963 8508 ft 247 kts 89°
2026-04-20 17:39 57.47562 39.99135 8189 ft 245 kts 89°
2026-04-20 17:39 57.47508 40.02281 7872 ft 243 kts 89°
2026-04-20 17:40 57.47453 40.05411 7559 ft 241 kts 89°
2026-04-20 17:40 57.47398 40.08518 7248 ft 239 kts 89°
2026-04-20 17:40 57.47343 40.11608 6940 ft 238 kts 88°
2026-04-20 17:40 57.47287 40.14661 6652 ft 235 kts 88°
2026-04-20 17:41 57.47232 40.17638 6389 ft 232 kts 88°
2026-04-20 17:41 57.47177 40.20623 6070 ft 231 kts 88°
2026-04-20 17:41 57.47245 40.23595 5719 ft 228 kts 76°
2026-04-20 17:41 57.47722 40.26369 5306 ft 227 kts 64°
2026-04-20 17:42 57.48404 40.29021 4944 ft 227 kts 62°
2026-04-20 17:42 57.49116 40.31623 4652 ft 224 kts 61°
2026-04-20 17:42 57.49822 40.34199 4349 ft 222 kts 61°
2026-04-20 17:42 57.50516 40.36749 4057 ft 219 kts 61°
2026-04-20 17:43 57.51196 40.39264 3777 ft 217 kts 61°
2026-04-20 17:43 57.51869 40.41765 3507 ft 216 kts 61°
2026-04-20 17:43 57.52557 40.44244 3161 ft 216 kts 58°
2026-04-20 17:43 57.53488 40.46394 2924 ft 211 kts 41°
2026-04-20 17:44 57.54734 40.47735 2737 ft 205 kts 20°
2026-04-20 17:44 57.56128 40.48076 2587 ft 202 kts
2026-04-20 17:44 57.57481 40.47447 2447 ft 200 kts 343°
2026-04-20 17:44 57.58730 40.46357 2313 ft 198 kts 340°
2026-04-20 17:45 57.59949 40.45196 2220 ft 196 kts 339°
2026-04-20 17:45 57.61144 40.43954 2110 ft 198 kts 331°
2026-04-20 17:45 57.62071 40.42012 1957 ft 206 kts 302°
2026-04-20 17:45 57.62298 40.39328 1792 ft 219 kts 266°
2026-04-20 17:46 57.61800 40.36667 1602 ft 214 kts 247°
2026-04-20 17:46 57.61077 40.34373 1594 ft 199 kts 240°
2026-04-20 17:46 57.60489 40.32202 1568 ft 175 kts 248°
2026-04-20 17:46 57.59976 40.30250 1635 ft 167 kts 247°
2026-04-20 17:47 57.59446 40.28298 1587 ft 165 kts 246°
2026-04-20 17:47 57.58950 40.26493 1374 ft 152 kts 246°
2026-04-20 17:47 57.58489 40.24785 1153 ft 142 kts 247°
2026-04-20 17:47 57.58054 40.23159 954 ft 140 kts 246°
2026-04-20 17:48 57.57619 40.21535 772 ft 140 kts 245°
2026-04-20 17:48 57.57179 40.19926 564 ft 138 kts 245°
2026-04-20 17:48 57.56762 40.18323 416 ft 137 kts 248°
2026-04-20 17:48 57.56364 40.16787 349 ft 119 kts 248°
2026-04-20 17:49 57.56045 40.15459 631 ft 121 kts 246°
2026-04-20 17:49 57.55619 40.14044 999 ft 131 kts 242°
2026-04-20 17:49 57.55163 40.12452 1315 ft 151 kts 247°
2026-04-20 17:49 57.54661 40.10509 1583 ft 180 kts 247°
2026-04-20 17:50 57.54195 40.09185 1895 ft 193 kts 225°
2026-04-20 17:50 57.52880 40.08194 2501 ft 217 kts 175°
2026-04-20 17:50 57.51395 40.09127 2921 ft 244 kts 135°
2026-04-20 17:50 57.50417 40.11714 2989 ft 237 kts 99°
2026-04-20 17:51 57.50445 40.14581 3010 ft 222 kts 73°
2026-04-20 17:51 57.50804 40.17438 3004 ft 230 kts 75°
2026-04-20 17:51 57.51022 40.20415 3001 ft 234 kts 81°
2026-04-20 17:51 57.51095 40.23446 2998 ft 235 kts 85°
2026-04-20 17:52 57.51045 40.26489 3002 ft 236 kts 89°
2026-04-20 17:52 57.50908 40.29534 3001 ft 238 kts 92°
2026-04-20 17:52 57.50516 40.32507 2996 ft 243 kts 104°
2026-04-20 17:52 57.49690 40.35334 2996 ft 252 kts 123°
2026-04-20 17:53 57.48303 40.37348 3002 ft 265 kts 151°
2026-04-20 17:53 57.46467 40.37839 2886 ft 270 kts 186°
2026-04-20 17:53 57.44803 40.36425 2732 ft 262 kts 221°
2026-04-20 17:53 57.43801 40.33735 2590 ft 247 kts 254°
2026-04-20 17:54 57.43577 40.30685 2456 ft 233 kts 279°
2026-04-20 17:54 57.43765 40.27706 2321 ft 232 kts 285°
2026-04-20 17:54 57.44025 40.24785 2218 ft 231 kts 285°
2026-04-20 17:54 57.44286 40.21833 2197 ft 231 kts 285°
2026-04-20 17:55 57.44535 40.18887 2200 ft 231 kts 285°
2026-04-20 17:55 57.44778 40.15939 2196 ft 231 kts 284°
2026-04-20 17:55 57.45016 40.12981 2199 ft 231 kts 284°
2026-04-20 17:55 57.45251 40.10024 2198 ft 232 kts 284°
2026-04-20 17:56 57.45485 40.07054 2205 ft 233 kts 284°
2026-04-20 17:56 57.45717 40.04074 2200 ft 233 kts 284°
2026-04-20 17:56 57.45948 40.01122 2196 ft 233 kts 284°
2026-04-20 17:56 57.46178 39.98153 2197 ft 232 kts 284°
2026-04-20 17:57 57.46406 39.95187 2202 ft 231 kts 284°
2026-04-20 17:57 57.46635 39.92226 2203 ft 231 kts 284°
2026-04-20 17:57 57.46862 39.89266 2202 ft 231 kts 284°
2026-04-20 17:57 57.47088 39.86318 2201 ft 230 kts 284°
2026-04-20 17:58 57.47335 39.83378 2206 ft 229 kts 289°
2026-04-20 17:58 57.47857 39.80649 2197 ft 221 kts 306°
2026-04-20 17:58 57.48797 39.78471 2207 ft 212 kts 327°
2026-04-20 17:58 57.50007 39.77102 2202 ft 203 kts 346°
2026-04-20 17:59 57.51354 39.76562 2209 ft 196 kts
2026-04-20 17:59 57.52688 39.76835 2206 ft 191 kts 19°
2026-04-20 17:59 57.53890 39.77847 2199 ft 189 kts 34°
2026-04-20 17:59 57.54862 39.79476 2195 ft 186 kts 50°
2026-04-20 18:00 57.55498 39.81490 2195 ft 177 kts 64°
2026-04-20 18:00 57.55790 39.83691 2215 ft 170 kts 78°
2026-04-20 18:00 57.55751 39.85796 2201 ft 164 kts 92°
2026-04-20 18:00 57.55415 39.87860 2202 ft 171 kts 106°
2026-04-20 18:01 57.54785 39.89716 2181 ft 164 kts 119°
2026-04-20 18:01 57.54080 39.91199 2175 ft 143 kts 121°
2026-04-20 18:01 57.53445 39.92464 2211 ft 127 kts 119°
2026-04-20 18:01 57.52857 39.93666 2203 ft 125 kts 118°
2026-04-20 18:02 57.52279 39.94870 2191 ft 124 kts 117°
2026-04-20 18:02 57.51815 39.96161 2176 ft 116 kts 102°
2026-04-20 18:02 57.51606 39.97560 2186 ft 108 kts 85°
2026-04-20 18:02 57.51637 39.98901 2191 ft 102 kts 70°
2026-04-20 18:03 57.51875 40.00138 1987 ft 104 kts 59°
2026-04-20 18:03 57.52199 40.01340 1686 ft 102 kts 58°
2026-04-20 18:03 57.52517 40.02522 1493 ft 103 kts 58°
2026-04-20 18:03 57.52845 40.03733 1409 ft 106 kts 58°
2026-04-20 18:04 57.53175 40.04958 1285 ft 106 kts 60°
2026-04-20 18:04 57.53516 40.06223 1123 ft 111 kts 60°
2026-04-20 18:04 57.53864 40.07518 988 ft 114 kts 60°
2026-04-20 18:04 57.54220 40.08846 816 ft 114 kts 60°
2026-04-20 18:05 57.54908 40.11525 579 ft 119 kts 60°
2026-04-20 18:05 57.55288 40.12883 447 ft 118 kts 59°
2026-04-20 18:05 57.55657 40.14243 327 ft 116 kts 62°
2026-04-20 18:06 57.55992 40.15485 312 ft 88 kts 59°
2026-04-20 18:06 57.56162 40.16104 312 ft 39 kts 63°
2026-04-20 18:06 57.56286 40.16564 314 ft 40 kts 62°
2026-04-20 18:06 57.56412 40.17026 316 ft 40 kts 63°
2026-04-20 18:07 57.56523 40.17442 315 ft 17 kts 63°
2026-04-20 18:07 57.56521 40.17622 314 ft 16 kts 142°
2026-04-20 18:07 57.56443 40.17663 316 ft 10 kts 202°
2026-04-20 18:07 57.56399 40.17572 315 ft 8 kts 205°
2026-04-20 18:08 57.56358 40.17569 315 ft 4 kts 206°
2026-04-20 18:08 57.56338 40.17522 315 ft 5 kts 236°
2026-04-20 18:08 57.56332 40.17502 315 ft 0 kts 240°